www.pogodaiklimat.ru
ПОГОДА в Миккели
Время
(UTC), дата
10 7.11
11 7.11
12 7.11
13 7.11
14 7.11
15 7.11
16 7.11
17 7.11
18 7.11
19 7.11
20 7.11
21 7.11
22 7.11
23 7.11
00 8.11
01 8.11
02 8.11
03 8.11
04 8.11
05 8.11
06 8.11
07 8.11
08 8.11
09 8.11
10 8.11
11 8.11
12 8.11
13 8.11
14 8.11
15 8.11
16 8.11
17 8.11
18 8.11
19 8.11
20 8.11
21 8.11
22 8.11
23 8.11
00 9.11
01 9.11
02 9.11
03 9.11
04 9.11
05 9.11
06 9.11
07 9.11
08 9.11
09 9.11
10 9.11
11 9.11
12 9.11
13 9.11
14 9.11
15 9.11
16 9.11
17 9.11
18 9.11
19 9.11
20 9.11
21 9.11
22 9.11
23 9.11
00 10.11
01 10.11
02 10.11
03 10.11
04 10.11
05 10.11
06 10.11
07 10.11
08 10.11
09 10.11
10 10.11
11 10.11
12 10.11
13 10.11
14 10.11
15 10.11
16 10.11
17 10.11
18 10.11
19 10.11
20 10.11
21 10.11
22 10.11
23 10.11
00 11.11
01 11.11
02 11.11
03 11.11
04 11.11
05 11.11
06 11.11
07 11.11
08 11.11
09 11.11
10 11.11
11 11.11
12 11.11
13 11.11
14 11.11
15 11.11
16 11.11
17 11.11
18 11.11
19 11.11
20 11.11
21 11.11
22 11.11
23 11.11
00 12.11
01 12.11
02 12.11
03 12.11
04 12.11
05 12.11
06 12.11
07 12.11
08 12.11
09 12.11
10 12.11
11 12.11
12 12.11
13 12.11
14 12.11
15 12.11
16 12.11
17 12.11
18 12.11
19 12.11
20 12.11
21 12.11
22 12.11
23 12.11
00 13.11
01 13.11
02 13.11
03 13.11
04 13.11
05 13.11
06 13.11
07 13.11
08 13.11
09 13.11
10 13.11
11 13.11
12 13.11
14 13.11
15 13.11
17 13.11
18 13.11
19 13.11
20 13.11
21 13.11
00 14.11
01 14.11
02 14.11
03 14.11
05 14.11
06 14.11
08 14.11
09 14.11
10 14.11
Ветер
(напр.,м/с)
Видим. Явления Облачность Т
(С)
Тd
(С)
f
(%)
Тe
(С)
Тes
(С)
Комфортность P
(гПа)
Po
(гПа)
Тmin
(С)
Tmax
(С)
R
(мм)
R24
(мм)
S
(см)
В 2-3
{3}
8000 м слаб. ливневой снег 10/0 200 м
[]
-5.8 -7.0 91 -10 -10 очень
холодно
1013.5 1000.7
ЮВ 2-4
{4}
3100 м слаб. ливневой снег 10/0 200 м
[]
-5.5 -6.7 91 -10 -10 очень
холодно
1013.9 1001.0 0.2
В 2-4
{4}
30 км слаб. ливневой снег 10/0 200 м
[]
-5.7 -6.9 91 -10 -10 очень
холодно
1014.2 1001.3 0.1
В 2-4
{4}
25 км в посл. час снег 10/0 200 м
[]
-5.5 -6.6 92 -10 -10 очень
холодно
1014.2 1001.3
СВ 2-3
{5}
35 км 10/0 200 м
[]
-5.4 -6.6 91 -10 -10 очень
холодно
1014.3 1001.5
СВ 1-3
{3}
40 км 10/0 200 м
[]
-5.3 -6.4 92 -8 -8 очень
холодно
1014.6 1001.7
В 2-3
{3}
30 км 10/0 300 м
[]
-5.1 -6.3 91 -9 -9 очень
холодно
1014.8 1002.0
СВ 2-3
{4}
30 км 10/0 300 м
[]
-5.2 -6.2 93 -10 -10 очень
холодно
1014.9 1002.0
В 2-4
{4}
35 км 10/0 300 м
[]
-5.0 -6.0 93 -9 -9 очень
холодно
1014.9 1002.1 -7.9 -5.0
СВ 2-3
{4}
35 км 9/8 300 м
[]
-5.3 -6.2 93 -10 -10 очень
холодно
1014.9 1002.0
В 1-2
{3}
30 км 1/0
[]
-6.4 -7.0 95 -9 -9 очень
холодно
1015.2 1002.3
В 1-3
{3}
35 км 3/0
[]
-8.1 -8.9 94 -11 -11 очень
холодно
1015.7 1002.6
СВ 1-2
{2}
35 км 3/0
[]
-9.7 -10.8 92 -12 -12 очень
холодно
1016.1 1003.0
В 1-2
{2}
35 км 4/0
[]
-10.4 -11.5 92 -13 -13 очень
холодно
1015.9 1002.8
СВ 2-3
{4}
45 км 1/0
[]
-9.4 -10.3 93 -14 -14 очень
холодно
1016.0 1002.9
СВ 2-4
{4}
40 км 9/8 600 м
[]
-6.4 -7.1 95 -11 -11 очень
холодно
1016.0 1003.1
СВ 2-4
{4}
45 км 10/0 300 м
[]
-5.6 -6.4 94 -10 -10 очень
холодно
1015.9 1003.0
В 2-4
{4}
45 км 10/0 300 м
[]
-5.0 -5.9 93 -9 -9 очень
холодно
1015.9 1003.0
В 2-3
{4}
40 км 10/0 300 м
[]
-4.7 -5.5 94 -9 -9 очень
холодно
1015.8 1002.9
СВ 2-3
{4}
40 км 10/0 200 м
[]
-4.4 -5.2 94 -9 -9 очень
холодно
1016.0 1003.2
СВ 2-3
{3}
30 км 10/0 200 м
[]
-4.2 -5.0 94 -9 -9 очень
холодно
1016.3 1003.4 -10.4 -4.2 <0.5
В 2-4
{4}
35 км 10/0 200 м
[]
-3.9 -4.6 95 -8 -8 очень
холодно
1016.5 1003.7
В 2-3
{3}
23 км 10/0 200 м
[]
-3.4 -4.2 94 -8 -8 очень
холодно
1016.7 1003.9
В 2-4
{4}
23 км 10/0 200 м
[]
-2.7 -3.6 94 -7 -7 холодно 1017.4 1004.6
ЮВ 2-3
{4}
1800 м слаб. снег 10/10 200 м
[]
-2.4 -3.1 95 -7 -7 холодно 1017.8 1005.0 0.2
ЮВ 1-3
{3}
2500 м слаб. снег 10/10 200 м
[]
-2.1 -3.0 94 -4 -4 прохладно 1018.1 1005.3 0.1
ЮВ 1-3
{3}
4300 м слаб. снег 10/10 100 м
[]
-2.0 -2.9 94 -4 -4 прохладно 1018.3 1005.6 0.1
ЮВ 1-3
{3}
13 км слаб. снег 10/10 200 м
[]
-2.2 -3.2 93 -5 -5 холодно 1018.3 1005.5
ЮВ 1-3
{4}
8000 м слаб. ливневой снег 10/0 200 м
[]
-2.3 -3.0 95 -5 -5 холодно 1019.0 1006.2
ЮВ 1-3
{3}
3000 м слаб. дождь со снегом 10/0 600 м
[]
-2.3 -2.8 96 -5 -5 холодно 1019.2 1006.4 0.2
ЮВ 1-3
{3}
4700 м снежные зёрна 10/10 100 м
[]
-2.1 -2.6 96 -4 -4 прохладно 1019.5 1006.8 0.1
ЮВ 1-3
{3}
12 км слаб. снег 10/0 100 м
[]
-1.9 -2.3 97 -4 -4 прохладно 1019.6 1006.8 0.1
ЮВ 1-3
{3}
9000 м слаб. снег 10/0 200 м
[]
-1.7 -2.1 97 -4 -4 прохладно 1019.7 1006.9 -4.2 -1.7 0.1
ЮВ 2-3
{3}
11 км в посл. час снег 10/0 200 м
[]
-1.6 -2.1 96 -6 -6 холодно 1019.8 1007.0
ЮВ 1-3
{3}
10 км в посл. час переохл. осадки (гололёд) 10/0 100 м
[]
-1.4 -1.8 97 -4 -4 прохладно 1020.1 1007.4
ЮВ 2-3
{3}
5000 м дымка 10/0 100 м
[]
-1.1 -1.4 98 -5 -5 холодно 1020.1 1007.4
ЮВ 2-3
{3}
4800 м дымка 10/0 100 м
[]
-0.7 -1.0 98 -5 -5 холодно 1019.8 1007.1
ЮВ 2-4
{5}
2300 м слаб. снег 10/0 100 м
[]
-0.5 -0.7 99 -4 -4 прохладно 1019.5 1006.8 0.2
ЮВ 2-4
{5}
4800 м слаб. снег 10/0 100 м
[]
-0.2 -0.4 99 -4 -4 прохладно 1019.1 1006.4 0.6
ЮВ 2-4
{5}
4700 м слаб. дождь со снегом 10/0 100 м
[]
+0.2 0.0 99 -4 -4 прохладно 1018.7 1006.0 0.6
ЮВ 3-5
{6}
8000 м слаб. дождь 10/0 100 м
[]
+0.4 +0.3 99 -4 -4 прохладно 1018.3 1005.7 0.1
ЮВ 3-5
{6}
6000 м морось 10/0 50 м
[]
+0.5 +0.3 99 -4 -4 прохладно 1017.8 1005.2 0.2
ЮВ 3-5
{6}
2600 м в посл. час дождь 10/0 50 м
[]
+0.6 +0.5 99 -4 -4 прохладно 1017.4 1004.8
ЮВ 3-5
{6}
1800 м дымка 10/0 50 м
[]
+0.9 +0.8 99 -4 -4 прохладно 1016.9 1004.3
ЮВ 3-5
{6}
3000 м дымка 10/0 50 м
[]
+1.2 +1.2 100 -4 -4 прохладно 1016.8 1004.2 -1.7 +1.2 2
ЮВ 3-6
{6}
3800 м дымка 10/0 50 м
[]
+1.4 +1.3 99 -3 -3 прохладно 1016.7 1004.1
ЮВ 3-5
{5}
2500 м дымка 10/0 50 м
[]
+1.6 +1.5 99 -3 -3 прохладно 1016.5 1004.0
ЮВ 2-4
{4}
1500 м дымка 10/0 50 м
[]
+1.8 +1.7 99 -2 -2 по сезону 1016.3 1003.7
ЮВ 2-4
{4}
1700 м дымка 10/0 50 м
[]
+2.0 +1.9 99 -2 -1 по сезону 1015.9 1003.4
ЮВ 2-4
{4}
2600 м дымка 10/0 50 м
[]
+2.2 +2.1 99 -1 -1 по сезону 1015.4 1002.9
ЮВ 2-4
{4}
4000 м дымка 10/0 50 м
[]
+2.2 +2.1 99 -1 -1 по сезону 1014.7 1002.2
В 2-4
{5}
2600 м слаб. ливневой дождь 10/0 50 м
[]
+2.1 +2.0 99 -1 -1 по сезону 1014.2 1001.7 0.1
ЮВ 2-5
{5}
2200 м слаб. морось 10/0 50 м
[]
+2.0 +1.9 99 -2 -2 по сезону 1013.6 1001.1 0.1
ЮВ 2-3
{5}
2800 м ливневой дождь 10/0 50 м
[]
+1.9 +1.8 99 -2 -2 по сезону 1013.3 1000.8 0.1
В 2-3
{4}
1400 м слаб. дождь 10/0 50 м
[]
+1.9 +1.9 100 -2 -2 по сезону 1012.8 1000.3 0.2
В 2-4
{4}
700 м слаб. ливневой дождь ?/? +1.9 +1.9 100 -2 -2 по сезону 1012.4 999.9 0.1
В 1-2
{3}
1200 м слаб. дождь 10/0 50 м
[]
+2.0 +1.9 99 0 0 по сезону 1012.1 999.6 +1.1 +2.3 0.2
В 1-2
{3}
1000 м ливневой дождь 10/0 50 м
[]
+1.9 +1.8 99 -0 -0 по сезону 1012.0 999.5 0.2
В 1-2
{3}
700 м слаб. морось ?/? +1.8 +1.8 100 -0 -0 по сезону 1011.6 999.1 0.2
В 1-2
{3}
600 м туман ?/? +1.8 +1.8 100 -0 -0 по сезону 1011.5 999.0 0.1
В 1-2
{2}
700 м туман ?/? +1.7 +1.7 100 -0 -0 по сезону 1011.2 998.7
В 1-2
{3}
1100 м слаб. дождь 10/0 50 м
[]
+1.8 +1.8 100 -0 -0 по сезону 1011.0 998.5 0.6
В 1-2
{2}
1200 м слаб. дождь 10/0 50 м
[]
+1.8 +1.8 100 -0 -0 по сезону 1010.6 998.1 0.4
В 1-2
{2}
1800 м слаб. дождь 10/0 50 м
[]
+1.9 +1.9 100 -0 -0 по сезону 1010.5 998.0 0.4
В 1-2
{2}
1900 м дождь 10/0 50 м
[]
+2.0 +2.0 100 0 0 по сезону 1010.3 997.8 0.9
В 1-3
{3}
4000 м слаб. дождь 10/0 50 м
[]
+2.0 +2.0 100 0 0 по сезону 1010.0 997.5 0.6
В 1-3
{3}
3300 м слаб. дождь 10/0 50 м
[]
+2.1 +2.0 99 0 0 по сезону 1009.7 997.3 0.3
В 2-2
{3}
2700 м слаб. дождь 10/0 50 м
[]
+2.1 +2.0 99 -1 -1 по сезону 1009.4 996.9 0.9
В 1-3
{3}
6000 м морось 10/0 50 м
[]
+2.1 +2.0 99 0 0 по сезону 1009.2 996.8 +1.7 +2.1 0.3 <0.5
В 1-3
{3}
1800 м слаб. морось 10/0 50 м
[]
+2.1 +2.1 100 0 0 по сезону 1008.8 996.4 0.1
В 2-3
{3}
2800 м слаб. морось 10/0 50 м
[]
+2.1 +2.1 100 -1 -1 по сезону 1008.6 996.2 0.1
В 1-2
{3}
2000 м слаб. ливневой дождь 10/0 50 м
[]
+2.3 +2.3 100 0 +1 по сезону 1008.8 996.3 0.3
В 1-3
{3}
6000 м морось 10/0 50 м
[]
+2.5 +2.4 99 +1 +1 по сезону 1008.0 995.6 0.9
СВ 1-3
{4}
7000 м слаб. морось 10/0 50 м
[]
+2.6 +2.6 100 +1 +1 по сезону 1007.7 995.3 0.1
В 2-3
{3}
7000 м дымка 10/0 50 м
[]
+2.6 +2.6 100 -1 -1 по сезону 1007.2 994.8
В 2-3
{3}
2100 м морось 10/0 50 м
[]
+2.6 +2.6 100 -1 -1 по сезону 1006.6 994.2 0.1
В 1-3
{3}
5000 м слаб. дождь 10/0 50 м
[]
+2.6 +2.6 100 +1 +1 по сезону 1006.3 993.9 0.4
СВ 2-3
{3}
4800 м в посл. час дождь 10/0 50 м
[]
+2.6 +2.5 99 -1 -1 по сезону 1005.8 993.4 0.2
СВ 1-2
{3}
2400 м дождь 10/0 50 м
[]
+2.4 +2.4 100 0 0 по сезону 1005.7 993.3 1
В 1-3
{3}
18 км в посл. час дождь 10/0 100 м
[]
+2.4 +2.4 100 0 0 по сезону 1005.7 993.3 0.9
В 1-1
{2}
2500 м слаб. ливневой дождь 10/0 50 м
[]
+2.3 +2.3 100 0 0 по сезону 1005.7 993.3 +2.1 +2.7 0.1
С 1-2
{3}
800 м слаб. ливневой дождь ?/? +2.2 +2.1 99 0 0 по сезону 1005.6 993.3 0.2
С 1-2
{2}
2300 м слаб. ливневой дождь 10/0 50 м
[]
+2.2 +2.1 99 0 0 по сезону 1005.9 993.5 0.2
штиль 0
{2}
1800 м в посл. час морось 10/0 50 м
[]
+2.0 +2.0 100 +1 +1 по сезону 1006.1 993.7 0.1
С 1-2
{2}
4700 м слаб. ливневой дождь 10/0 50 м
[]
+1.8 +1.8 100 -0 -0 по сезону 1006.5 994.0 0.1
С 1-2
{2}
9000 м в посл. час морось 10/0 100 м
[]
+1.6 +1.5 99 -0 -0 по сезону 1006.5 994.1 0.1
С 2-3
{3}
1600 м сильн. морось ?/? +1.4 +1.4 100 -2 -2 по сезону 1007.0 994.6 0.1
С 2-3
{3}
4700 м дымка 10/0 100 м
[]
+1.2 +1.2 100 -3 -3 прохладно 1007.2 994.8 0.1
С 2-2
{3}
7000 м в посл. час осадки 10/0 100 м
[]
+1.1 +1.0 99 -3 -3 прохладно 1007.4 994.9
С 2-4
{4}
6000 м слаб. ливневой дождь 10/0 50 м
[]
+1.0 +0.9 99 -3 -3 прохладно 1007.8 995.3 0.1
С 2-4
{4}
7000 м в посл. час дождь 10/0 100 м
[]
+0.7 +0.7 100 -3 -3 прохладно 1008.1 995.6 0.1
СЗ 2-3
{3}
9000 м дымка 10/0 100 м
[]
+0.6 +0.5 99 -3 -3 прохладно 1008.4 995.9
СЗ 2-4
{4}
5000 м дымка 10/0 50 м
[]
+0.5 +0.4 99 -3 -3 прохладно 1008.8 996.2 +0.5 +2.3 <0.5
СЗ 2-4
{4}
2900 м дымка 10/0 50 м
[]
+0.4 +0.4 100 -3 -3 прохладно 1009.1 996.5
С 2-4
{4}
5000 м дымка 10/0 50 м
[]
+0.4 +0.4 100 -3 -3 прохладно 1009.3 996.8
СЗ 2-3
{4}
18 км 10/0 100 м
[]
+0.6 +0.5 99 -3 -3 прохладно 1009.4 996.9
СЗ 2-4
{4}
10 км 10/0 100 м
[]
+0.6 +0.5 99 -3 -3 прохладно 1009.5 997.0
СЗ 2-4
{4}
15 км 10/0 100 м
[]
+0.4 +0.4 100 -3 -3 прохладно 1009.7 997.2
СЗ 2-3
{4}
7000 м дымка 10/0 50 м
[]
+0.3 +0.2 99 -4 -3 прохладно 1009.6 997.1
СЗ 2-4
{4}
7000 м дымка 10/0 50 м
[]
+0.1 0.0 99 -4 -4 прохладно 1009.7 997.1
СЗ 2-3
{4}
5000 м дымка 10/0 50 м
[]
-0.2 -0.2 100 -4 -4 прохладно 1010.0 997.4
СЗ 2-4
{4}
8000 м дымка 10/0 50 м
[]
-0.4 -0.5 99 -4 -4 прохладно 1010.0 997.4
СЗ 3-5
{6}
26 км 10/0 100 м
[]
-0.5 -0.7 99 -6 -6 холодно 1010.4 997.8
СЗ 3-5
{5}
15 км 10/0 100 м
[]
-0.9 -1.2 98 -6 -6 холодно 1010.5 997.9
СЗ 2-4
{4}
8000 м дымка 10/0 50 м
[]
-1.1 -1.3 99 -5 -5 холодно 1010.7 998.1 -1.1 +0.7
СЗ 3-5
{5}
7000 м дымка 10/0 50 м
[]
-1.3 -1.5 99 -6 -6 холодно 1011.1 998.5
СЗ 1-2
{4}
3300 м слаб. дождь со снегом 10/0 100 м
[]
-1.4 -1.7 98 -4 -4 прохладно 1011.4 998.8
СЗ 2-4
{5}
2600 м слаб. дождь со снегом 10/0 100 м
[]
-1.8 -2.3 96 -6 -6 холодно 1011.9 999.3
СЗ 3-5
{5}
4700 м слаб. дождь со снегом 10/0 200 м
[]
-2.0 -2.6 96 -7 -7 холодно 1012.6 999.9
СЗ 2-3
{4}
3600 м слаб. дождь со снегом 10/0 200 м
[]
-2.2 -2.8 96 -6 -6 холодно 1013.2 1000.5
СЗ 3-5
{5}
4600 м снежные зёрна 10/0 200 м
[]
-2.4 -3.0 96 -8 -8 очень
холодно
1013.7 1001.0
СЗ 3-4
{5}
16 км слаб. снег 9/0 200 м
[]
-2.7 -3.6 94 -8 -8 очень
холодно
1014.2 1001.5
З 3-5
{5}
6000 м слаб. снег 10/0 200 м
[]
-2.7 -3.5 94 -8 -8 очень
холодно
1015.0 1002.2
З 2-6
{6}
6000 м снежные зёрна 10/0 200 м
[]
-2.9 -3.7 94 -7 -7 холодно 1015.8 1003.1 0.1
З 2-4
{4}
6000 м слаб. снег 10/0 200 м
[]
-3.1 -3.8 95 -7 -7 холодно 1016.1 1003.3 0.1
СЗ 2-4
{5}
17 км слаб. ливневой снег 10/0 200 м
[]
-3.0 -3.9 93 -7 -7 холодно 1016.5 1003.8
З 2-4
{5}
27 км слаб. ливневой снег 10/0 200 м
[]
-3.0 -4.1 92 -7 -7 холодно 1017.4 1004.6 -3.1 -1.1 <0.5
З 2-5
{5}
12 км слаб. ливневой снег 10/0 200 м
[]
-3.0 -4.0 93 -7 -7 холодно 1018.0 1005.2
штиль 0
{4}
3900 м слаб. ливневой снег 10/0 300 м
[]
-2.6 -3.5 94 -4 -4 прохладно 1018.4 1005.6
З 1-3
{3}
9000 м снежные зёрна 10/0 200 м
[]
-2.2 -3.2 93 -5 -4 холодно 1019.3 1006.5
Ю 1-1
{3}
20 км слаб. снег 10/0 100 м
[]
-1.9 -2.8 94 -4 -4 прохладно 1019.5 1006.8
Ю 1-3
{3}
35 км в посл. час зёрна 10/0 100 м
[]
-1.7 -2.4 95 -4 -4 прохладно 1020.2 1007.4
Ю 1-3
{3}
19 км 10/0 100 м
[]
-1.7 -2.1 97 -4 -4 прохладно 1020.3 1007.6
ЮВ 2-3
{4}
3300 м дымка ?/? -2.1 -2.3 99 -6 -6 холодно 1020.7 1007.9
ЮВ 2-4
{4}
1300 м дымка ?/? -2.3 -2.4 99 -7 -7 холодно 1021.0 1008.2
ЮВ 2-4
{4}
1500 м в посл. час туман ?/? -2.1 -2.2 99 -6 -6 холодно 1020.8 1008.0
В 3-5
{5}
1100 м дымка 10/0 50 м
[]
-2.1 -2.2 99 -7 -7 холодно 1019.9 1007.1
В 2-4
{5}
2300 м дымка 10/0 50 м
[]
-1.9 -2.1 99 -6 -6 холодно 1019.9 1007.1
В 2-4
{5}
5000 м ливневой дождь 10/0 50 м
[]
-1.7 -1.8 99 -6 -6 холодно 1019.4 1006.7 -3.1 -1.6
ЮВ 2-4
{5}
8000 м дымка 10/0 50 м
[]
-1.1 -1.2 99 -5 -5 холодно 1019.0 1006.3
ЮВ 3-6
{6}
3900 м слаб. снег 10/0 50 м
[]
-0.5 -0.6 99 -6 -6 холодно 1018.2 1005.5
В 3-6
{7}
1800 м слаб. ливневой снег 10/0 100 м
[]
-0.2 -0.3 99 -5 -5 холодно 1017.1 1004.5 0.1
В 3-6
{7}
1300 м слаб. снег 10/0 100 м
[]
+0.1 -0.1 99 -5 -5 холодно 1016.2 1003.6 1
ЮВ 3-6
{8}
4600 м слаб. снег 10/0 100 м
[]
+0.3 +0.2 99 -5 -5 холодно 1015.4 1002.8 0.8
ЮВ 3-7
{7}
6000 м слаб. дождь со снегом 10/0 100 м
[]
+0.6 +0.5 99 -4 -4 прохладно 1014.7 1002.1 0.6
ЮВ 3-5
{7}
6000 м слаб. дождь 10/0 100 м
[]
+1.2 +1.1 99 -4 -4 прохладно 1014.3 1001.8 0.8
ЮВ 3-7
{7}
5000 м слаб. ливневой дождь 10/0 50 м
[]
+1.8 +1.7 99 -3 -3 прохладно 1013.9 1001.4 0.2
ЮВ 3-6
{7}
3100 м слаб. дождь 10/0 50 м
[]
+2.1 +2.0 99 -2 -2 по сезону 1013.4 1000.9 0.8
ЮВ 3-5
{6}
6000 м морось 10/0 50 м
[]
+2.3 +2.3 100 -2 -2 по сезону 1013.0 1000.5 0.3
ЮВ 3-6
{6}
3200 м в посл. час морось 10/0 50 м
[]
+2.5 +2.4 99 -2 -2 по сезону 1013.2 1000.7
ЮВ 3-5
{5}
1900 м морось 10/0 50 м
[]
+2.5 +2.5 100 -2 -2 по сезону 1012.8 1000.3 -1.7 +2.6 0.1 <0.5
ЮВ 2-4
{6}
2600 м слаб. морось 10/0 50 м
[]
+2.6 +2.5 99 -1 -1 по сезону 1012.6 1000.2 0.1
ЮВ 2-4
{4}
2200 м слаб. ливневой дождь 10/0 50 м
[]
+2.5 +2.5 100 -1 -1 по сезону 1012.1 999.7
ЮВ 2-5
{5}
2600 м слаб. морось 10/0 50 м
[]
+2.7 +2.6 99 -1 -1 по сезону 1012.0 999.5
ЮВ 2-4
{5}
2100 м слаб. морось 10/0 50 м
[]
+2.7 +2.6 99 -1 -0 по сезону 1011.3 998.9 0.1
ЮВ 2-5
{6}
2400 м слаб. ливневой дождь 10/0 50 м
[]
+2.9 +2.9 100 -1 -0 по сезону 1011.4 998.9
ЮВ 3-5
{6}
2700 м слаб. ливневой дождь 10/0 50 м
[]
+2.9 +2.8 99 -1 -1 по сезону 1010.8 998.4 0.2
ЮВ 2-3
{5}
1600 м слаб. дождь 10/0 50 м
[]
+3.2 +3.2 100 -0 -0 по сезону 1009.8 997.4 0.2
ЮВ 2-4
{5}
2200 м слаб. дождь 10/0 50 м
[]
+3.5 +3.4 99 0 0 по сезону 1009.3 996.9 0.2
ЮВ 3-4
{5}
7000 м морось 10/0 50 м
[]
+3.7 +3.7 100 -0 -0 по сезону 1008.1 995.7 0.2
ЮВ 2-4
{5}
4400 м дождь 10/0 100 м
[]
+4.0 +4.0 100 +1 +1 по сезону 1007.6 995.2 +2.4 +4.0 2
ЮВ 2-4
{5}
8000 м слаб. дождь 10/0 100 м
[]
+4.2 +4.2 100 +1 +1 по сезону 1007.6 995.2 2
ЮВ 2-4
{4}
6000 м слаб. дождь 10/0 100 м
[]
+4.3 +4.3 100 +1 +1 по сезону 1006.9 994.6 0.8
ЮВ 1-3
{4}
7000 м слаб. дождь 10/0 100 м
[]
+4.5 +4.5 100 +3 +3 по сезону 1006.8 994.5 1
ЮВ 1-2
{4}
900 м туман ?/? +5.3 +5.3 100 +4 +4 по сезону 1006.8 994.5
ЮВ 1-3
{3}
400 м туман ?/? +5.2 +5.2 100 +4 +4 по сезону 1006.5 994.2
ЮВ 1-3
{3}
600 м туман ?/? +5.6 +5.5 99 +4 +4 по сезону 1006.4 994.1
Ю 1-3
{4}
2100 м в посл. час туман 10/0 50 м
[]
+6.1 +6.1 100 +5 +5 тепло 1006.8 994.5
ЮВ 1-3
{3}
800 м туман ?/? +6.3 +6.2 99 +5 +5 тепло 1006.6 994.3
ЮВ 1-3
{3}
400 м туман ?/? +6.5 +6.4 99 +5 +5 тепло 1006.7 994.5 +4.0 +6.5 <0.5
ЮВ 2-4
{5}
700 м слаб. дождь ?/? +7.2 +7.2 100 +5 +5 тепло 1006.7 994.5
ЮВ 3-6
{6}
3100 м дождь 10/0 50 м
[]
+7.4 +7.4 100 +4 +4 по сезону 1006.2 994.0 0.8
ЮВ 3-7
{7}
4000 м слаб. дождь 10/0 100 м
[]
+7.3 +7.3 100 +4 +4 по сезону 1005.8 993.7 0.4
Местоположение метеостанции Миккели (Финляндия): широта 61.69 долгота 27.20 высота над уровнем моря 99 м.
В архиве по умолчанию представлена погода в Миккели за последнюю неделю. Архивные данные за месяц целиком и за предыдущие месяцы, начиная с января 2011 года, Вы можете получить, выбрав интересующий диапазон дат из раскрывающегося списка и нажав кнопку "Найти!".
*Определитесь, кто Вы:
Внимание! Время в таблицах - всемирное. Для получения местного времени необходимо прибавить поправку, которая равна 1 ч.
Смотрите также архив погоды в соседних городах и на ближайших метеорологических станциях:
Партнеры нашего сайта:      
Пояснения к столбцам:
  • Ветер - указаны скорость ветра в м/с - средняя за 10 мин, порывы в срок и между сроками (в фигурных скобках) и направление, откуда дует ветер: С - северный,
  • СВ - северо-восточный, В - восточный, ЮВ - юго-восточный, Ю - южный, ЮЗ - юго-западный, З - западный, СЗ - северо-западный.
  • Видимость - горизонтальная дальность видимости в метрах или километрах. При видимости от 1 до 10 км при отсутствии осадков обычно наблюдается дымка, при ухудшении видимости до 1 км и менее - туман. В сухую погоду видимость может ухудшаться дымом, пылью или мглою.
  • Явления - указаны атмосферные явления, наблюдавшиеся в срок или в последний час перед сроком; фигурными скобками обозначены явления, наблюдавшиеся между сроками (за 1-3 часа до срока); квадратными скобками обозначены град или гололедные отложения с указанием их диаметра в мм.
  • Облачность - указаны через наклонную черту общая и нижняя облачность в баллах и высота нижней границы облаков в метрах; квадратными скобками обозначены формы облаков: Ci - перистые, Cs - перисто-слоистые, Cc - перисто-кучевые, Ac - высококучевые, As - высокослоистые, Sc - слоисто-кучевые, Ns - слоисто-дождевые, Cu - кучевые, Cb - кучево-дождевые. Подробнее классификацию облаков см. в Атласе облаков (PDF).
  • T - Температура воздуха - температура, измеренная на высоте 2 м над землей.
  • Td - Температура точки росы - температура, при понижении до которой содержащийся в воздухе водяной пар достигнет насыщения.
  • f - Относительная влажность воздуха - влажноcть воздуха, измеренная на высоте 2 м над землей.
  • Te - Эффективная температура - температура, которую ощущает одетый по сезону человек в тени. Характеристика душности погоды. При расчете учитывается влияние влажности воздуха и скорости ветра на теплоощущения человека.
  • Tes - Эффективная температура на солнце - температура, которую ощущает человек, с поправкой на солнечный нагрев. Характеристика знойности погоды. Зависит от высоты солнца над горизонтом, облачности и скорости ветра. Ночью, в пасмурную погоду, а также при ветре 12 м/с и более поправка равна нулю.
  • P - Атмосферное давление - приведенное к уровню моря атмосферное давление.
  • Po - Атмосферное давление - измеренное на уровне метеостанции атмосферное давление.
  • Tmin - Минимальная температура - минимум температуры воздуха на высоте 2 м над землей.
  • Tmax - Максимальная температура - максимум температуры воздуха на высоте 2 м над землей.
  • R - Количество осадков - Количество выпавших осадков за период времени, мм. При наведении курсора мыши на число - период времени, за который выпало указанное количество осадков.
  • R24 - Количество осадков - Количество выпавших осадков за 24 часа, мм.
  • S - Снежный покров - Высота снежного покрова, см. При наведении курсора мыши на число - состояние снежного покрова и степень покрытия местности в баллах.